Weather History for Rolla, MO

Change the Weather History Date:

Sunday, April 27, 2014

  Actual Average Record
Temperature  
Mean Temperature 69 °F 59 °F  
Max Temperature 75 °F 70 °F 89 °F (1899)
Min Temperature 62 °F 48 °F 33 °F (1904)
Degree Days  
Heating Degree Days 0 7  
Month to date heating degree days 261 294  
Since 1 July heating degree days 5318 4698  
Cooling Degree Days 4 1  
Month to date cooling degree days 12 21  
Year to date cooling degree days 12 25  
Growing Degree Days 18 (Base 50)    
Moisture  
Dew Point 59 °F    
Average Humidity 71    
Maximum Humidity 93    
Minimum Humidity 49    
Precipitation  
Precipitation 0.37 in 0.15 in 1.31 in (1963)
Month to date precipitation 3.28 3.75  
Year to date precipitation 5.45 11.30  
Sea Level Pressure  
Sea Level Pressure 29.57 in    
Wind  
Wind Speed 15 mph (SSE)    
Max Wind Speed 31 mph    
Max Gust Speed 39 mph    
Visibility 9 miles    
Events Rain , Thunderstorm    
T = Trace of Precipitation, MM = Missing Value Source: NWS Daily Summary

Daily Weather History Graph

Daily Weather History Graph

Search for Another Location

Airport:

Trip Planner

Search our weather history database for the weather conditions in past years. The results will help you decide how hot, cold, wet, or windy it might be!

Date:

Astronomy

Apr. 27, 2014 Rise Set
Actual Time 6:15 AM CDT 7:54 PM CDT
Civil Twilight 5:47 AM CDT 8:22 PM CDT
Nautical Twilight 5:13 AM CDT 8:56 PM CDT
Astronomical Twilight 4:37 AM CDT 9:32 PM CDT
Moon 5:14 AM CDT (4/27) 6:30 PM CDT (4/27)
Length of Visible Light 14h 35m
Length of Day
13h 38m
Waning Crescent, 3% of the Moon is Illuminated
Apr 27
Waning Crescent
Apr 29
New
May 6
First Quarter
May 14
Full
May 21
Last Quarter

Hourly Weather History & Observations

Time (CDT) Temp. Dew Point Humidity Pressure Visibility Wind Dir Wind Speed Gust Speed Precip Events Conditions
12:53 AM 64.9 °F 46.0 °F 50% 29.70 in 10.0 mi SE 13.8 mph - N/A   Clear
1:53 AM 64.9 °F 46.0 °F 50% 29.68 in 10.0 mi SE 13.8 mph - N/A   Clear
2:53 AM 68.0 °F 48.9 °F 50% 29.65 in 10.0 mi SE 16.1 mph 25.3 mph N/A   Clear
3:53 AM 66.2 °F 50.0 °F 56% 29.70 in 10.0 mi SSE 10.4 mph - N/A   Clear
4:53 AM 66.9 °F 53.1 °F 61% 29.65 in 10.0 mi SE 9.2 mph - N/A   Clear
5:53 AM 66.0 °F 54.0 °F 65% 29.64 in 10.0 mi SSE 10.4 mph - N/A   Clear
6:53 AM 66.2 °F 55.4 °F 68% 29.67 in 10.0 mi SE 8.1 mph - N/A   Clear
7:53 AM 68.0 °F 57.0 °F 68% 29.64 in 10.0 mi SE 12.7 mph - N/A   Clear
8:53 AM 72.0 °F 60.1 °F 66% 29.60 in 10.0 mi SE 13.8 mph 21.9 mph N/A   Clear
9:53 AM 75.0 °F 60.1 °F 60% 29.58 in 10.0 mi SSE 16.1 mph 31.1 mph N/A   Scattered Clouds
10:53 AM 73.9 °F 61.0 °F 64% 29.60 in 10.0 mi South 21.9 mph 36.8 mph N/A   Overcast
11:53 AM 72.0 °F 62.1 °F 71% 29.62 in 9.0 mi South 24.2 mph 32.2 mph N/A   Overcast
12:01 PM 71.1 °F 62.1 °F 73% 29.64 in 9.0 mi South 18.4 mph 33.4 mph N/A   Overcast
12:53 PM 71.1 °F 63.0 °F 75% 29.58 in 10.0 mi SSE 17.3 mph 25.3 mph 0.01 in   Overcast
1:15 PM 72.0 °F 63.0 °F 73% 29.58 in 10.0 mi South 20.7 mph 28.8 mph N/A   Mostly Cloudy
1:53 PM 75.0 °F 60.1 °F 60% 29.52 in 10.0 mi South 21.9 mph 31.1 mph N/A   Scattered Clouds
2:53 PM 69.8 °F 57.2 °F 64% 29.62 in 10.0 mi South 23.0 mph 33.4 mph N/A Rain Light Rain
3:02 PM 68.0 °F 57.0 °F 68% 29.63 in 8.0 mi South 26.5 mph 34.5 mph 0.01 in Rain , Thunderstorm Light Thunderstorms and Rain
3:15 PM 64.9 °F 57.9 °F 78% 29.67 in 2.5 mi South 23.0 mph 31.1 mph 0.08 in Rain , Thunderstorm Thunderstorms and Rain
3:23 PM 64.0 °F 59.0 °F 84% 29.67 in 3.0 mi SSW 16.1 mph 31.1 mph 0.12 in Rain , Thunderstorm Thunderstorms and Rain
3:34 PM 63.0 °F 60.1 °F 90% 29.67 in 3.0 mi South 17.3 mph - 0.16 in Rain Rain
3:42 PM 63.0 °F 59.0 °F 87% 29.65 in 2.5 mi South 13.8 mph - 0.21 in Rain , Thunderstorm Heavy Rain
3:53 PM 62.1 °F 59.0 °F 90% 29.58 in 3.0 mi SE 9.2 mph - 0.24 in Rain , Thunderstorm Heavy Rain
4:06 PM 62.1 °F 59.0 °F 90% 29.54 in 10.0 mi East 16.1 mph - 0.01 in Rain Light Rain
4:53 PM 63.0 °F 60.1 °F 90% 29.51 in 10.0 mi SE 15.0 mph 25.3 mph 0.01 in   Clear
5:53 PM 64.0 °F 60.1 °F 87% 29.53 in 10.0 mi SSE 21.9 mph 29.9 mph N/A Thunderstorm Mostly Cloudy
6:01 PM 64.0 °F 60.1 °F 87% 29.53 in 8.0 mi SSE 23.0 mph 31.1 mph 0.01 in Rain , Thunderstorm Light Thunderstorms and Rain
6:10 PM 64.0 °F 60.1 °F 87% 29.51 in 10.0 mi SE 17.3 mph 32.2 mph 0.01 in Thunderstorm Thunderstorm
6:22 PM 63.0 °F 60.1 °F 90% 29.52 in 10.0 mi SE 20.7 mph 29.9 mph 0.02 in Rain , Thunderstorm Light Rain
6:29 PM 63.0 °F 60.1 °F 90% 29.51 in 10.0 mi SE 17.3 mph 26.5 mph 0.02 in   Overcast
6:53 PM 63.0 °F 60.1 °F 90% 29.51 in 9.0 mi SSE 17.3 mph 29.9 mph 0.02 in Rain Light Rain
7:00 PM 63.0 °F 60.1 °F 90% 29.53 in 3.0 mi SSE 19.6 mph 31.1 mph 0.04 in Rain , Thunderstorm Heavy Thunderstorms and Rain
7:12 PM 63.0 °F 60.1 °F 90% 29.52 in 5.0 mi SE 16.1 mph 26.5 mph 0.06 in Rain , Thunderstorm Light Thunderstorms and Rain
7:22 PM 63.0 °F 60.1 °F 90% 29.52 in 8.0 mi SE 15.0 mph - 0.06 in Thunderstorm Overcast
7:36 PM 64.0 °F 60.1 °F 87% 29.50 in 8.0 mi SE 15.0 mph 29.9 mph 0.07 in Rain , Thunderstorm Light Rain
7:53 PM 63.0 °F 60.1 °F 90% 29.52 in 10.0 mi SE 15.0 mph 24.2 mph 0.07 in Thunderstorm Overcast
8:06 PM 63.0 °F 60.1 °F 90% 29.52 in 7.0 mi ESE 13.8 mph 21.9 mph 0.01 in Rain , Thunderstorm Light Thunderstorms and Rain
8:24 PM 62.1 °F 60.1 °F 93% 29.53 in 10.0 mi SE 11.5 mph 19.6 mph 0.02 in   Overcast
8:53 PM 62.1 °F 60.1 °F 93% 29.51 in 10.0 mi SSE 12.7 mph - 0.02 in   Overcast
9:00 PM 62.1 °F 60.1 °F 93% 29.53 in 10.0 mi SE 12.7 mph - N/A   Overcast
9:21 PM 62.1 °F 60.1 °F 93% 29.52 in 10.0 mi SE 17.3 mph 25.3 mph N/A   Mostly Cloudy
9:39 PM 62.1 °F 59.0 °F 90% 29.52 in 10.0 mi ESE 16.1 mph - N/A   Scattered Clouds
9:53 PM 62.1 °F 60.1 °F 93% 29.50 in 10.0 mi ESE 17.3 mph - N/A   Scattered Clouds
10:02 PM 62.1 °F 60.1 °F 93% 29.53 in 10.0 mi ESE 17.3 mph - N/A   Mostly Cloudy
10:36 PM 62.1 °F 60.1 °F 93% 29.52 in 10.0 mi SE 15.0 mph - N/A   Mostly Cloudy
10:53 PM 62.1 °F 60.1 °F 93% 29.49 in 10.0 mi SE 12.7 mph - N/A   Mostly Cloudy
11:07 PM 62.6 °F 59.0 °F 88% 29.50 in 10.0 mi SE 12.7 mph - N/A   Mostly Cloudy
11:53 PM 62.6 °F 59.0 °F 88% 29.52 in 10.0 mi WNW 10.4 mph - N/A   Mostly Cloudy